Location: Home
(42.5358°N, 72.7383°W)
Time: 08:39:37
(UTC-04:00)

A-11 Canister half - Pass Details

Date: 01 July 2022
Orbit: 1514 x 1685 km, 47.2° (Epoch: 15 August)

Event Time Altitude Azimuth Distance (km) Brightness Sun altitude
Rises 01:29:35 0° 270° (W) 4,936 11.6 -23.9°
Reaches altitude 10° 01:32:49 10° 274° (W) 3,941 11.1 -23.8°
Maximum altitude 01:42:56 68° 357° (N) 1,759 9.4 -23.4°
Drops below altitude 10° 01:52:45 10° 80° (E) 3,833 11.4 -23.0°
Sets 01:55:51 0° 83° (E) 4,796 11.9 -22.9°
